RH
88 87 87 88 87 83 80 76 69 62 54 48 42 38 34 31 29 28 25 23 21 20 18 17 16 15 13 12 10 8 6 5 4 4 3 3 3 3 4 4 3 3 3 2 3 3 3 3 3 3 3 3 3 3 3 4 4 4 4 5 6 6 6
84 83 83 86 85 81 79 74 66 59 52 47 41 36 33 29 27 25 23 21 19 18 17 15 15 14 12 10 8 6 5 4 4 4 4 4 4 4 4 4 4 3 3 3 3 4 4 4 4 4 4 3 3 4 3 4 5 6 6 6 7 7 7
82 82 84 87 85 80 77 70 62 56 50 45 40 35 32 29 26 24 21 19 18 16 15 15 14 13 11 9 7 5 4 4 4 3 4 4 4 5 5 5 5 5 4 4 4 4 5 5 5 5 5 4 4 4 4 5 6 7 9 9 9 9 8
82 82 86 89 85 80 74 66 58 53 48 42 37 34 31 28 25 22 20 18 17 16 15 14 14 12 9 7 5 5 4 4 4 4 4 5 5 6 6 6 6 6 6 5 4 5 6 6 6 6 6 5 5 5 5 6 7 9 10 11 10 10 9
83 83 87 90 86 79 71 62 56 50 45 40 36 33 30 27 24 20 19 17 16 16 15 14 12 9 7 6 5 5 4 4 5 5 5 6 6 6 7 7 8 7 7 7 6 7 7 7 8 7 7 7 7 8 8 9 10 11 12 12 12 11 10
83 83 88 90 85 77 68 60 55 48 43 39 35 32 29 25 22 19 18 17 16 16 14 12 10 7 6 5 5 5 5 5 6 6 7 7 7 7 7 7 9 9 9 9 9 8 8 9 10 9 9 10 9 10 11 12 14 14 14 14 13 13 11
83 85 90 90 82 74 65 58 53 47 42 38 34 31 27 23 21 19 18 17 16 15 13 10 8 6 5 5 4 5 5 6 7 7 8 8 8 8 9 9 11 11 12 12 11 11 11 11 12 12 12 13 13 13 13 15 17 17 17 16 14 15 13
86 89 91 88 78 70 62 55 50 44 40 36 32 29 25 22 21 19 18 17 15 13 11 8 6 5 5 5 5 6 6 7 8 8 8 9 9 10 11 12 14 14 15 15 14 14 14 15 16 15 16 16 15 16 16 18 19 19 19 18 16 16 16
90 93 92 84 74 66 59 52 46 41 37 33 29 26 23 21 20 18 17 16 14 11 8 7 6 5 5 6 6 6 7 7 8 8 9 9 10 12 13 15 17 17 18 18 18 19 19 20 20 19 19 19 18 18 18 20 22 21 21 20 19 19 19
95 95 88 78 68 62 55 48 42 38 34 31 27 24 22 20 19 17 16 13 10 8 6 6 6 6 7 7 7 7 7 8 9 9 10 10 11 14 15 17 18 19 21 22 23 25 25 25 25 23 23 21 20 21 20 21 24 24 24 22 21 23 23
97 91 81 71 63 56 49 43 38 35 32 28 25 23 21 19 18 16 13 10 7 6 6 6 7 8 9 8 9 9 9 9 10 10 11 12 13 15 16 18 20 21 24 26 28 29 30 30 29 27 26 24 23 23 22 23 25 26 27 26 24 26 28
93 83 73 65 57 50 43 39 36 32 29 26 24 22 19 18 16 13 10 7 6 6 6 7 7 8 10 11 12 13 12 12 12 11 12 13 14 16 18 19 21 23 26 28 30 32 33 33 33 31 29 27 26 25 25 26 28 29 30 30 28 30 32
84 73 65 57 50 44 39 36 33 30 27 25 22 20 18 16 12 9 7 5 5 6 6 7 8 8 10 13 15 16 16 16 14 14 14 15 16 18 20 22 24 26 28 29 31 32 33 34 34 33 33 31 29 28 28 29 31 33 33 34 33 33 35
73 65 58 50 44 41 37 34 31 28 25 23 21 18 16 12 9 6 6 6 6 7 7 7 8 10 11 13 15 17 17 18 17 16 16 17 18 21 23 25 26 28 29 30 30 31 31 33 33 33 34 35 33 32 31 32 34 36 37 36 35 35 36
65 57 50 45 42 38 34 30 28 25 23 21 19 16 12 9 7 6 6 7 7 8 8 9 10 10 12 12 14 16 17 17 17 18 18 19 21 23 24 26 27 29 29 29 29 30 29 30 31 31 32 35 37 36 35 34 35 38 39 38 38 39 39
56 50 45 42 38 34 30 28 25 23 22 19 16 12 9 7 7 8 8 8 9 9 10 11 11 12 12 13 14 14 15 16 18 19 20 21 22 23 25 27 27 28 28 28 27 28 28 28 28 29 30 32 35 38 39 39 38 38 39 40 41 44 44
50 45 41 37 33 30 28 25 24 22 19 16 13 9 8 8 8 9 9 10 11 11 12 13 13 14 13 13 14 14 15 17 18 20 20 21 22 23 25 26 26 26 26 26 25 25 25 26 26 27 29 30 33 37 41 43 44 43 43 42 42 47 51
44 40 36 32 29 27 26 24 23 20 16 13 11 10 9 9 9 10 11 12 12 13 14 14 14 15 14 14 14 15 17 18 19 20 20 20 21 22 23 24 24 24 24 23 24 24 24 25 26 26 29 31 33 37 40 44 47 49 48 46 44 47 54
39 34 31 29 27 26 25 22 19 16 13 12 11 11 10 10 11 12 12 13 14 14 15 15 15 15 15 15 17 18 19 19 18 18 17 16 16 17 17 19 20 20 22 22 23 24 25 26 28 30 32 34 36 39 42 46 51 54 54 54 51 50 53
34 31 29 28 26 24 22 18 14 13 12 13 12 12 12 11 13 14 14 14 15 15 15 15 15 16 17 17 19 18 17 16 14 12 11 11 12 12 13 15 16 17 20 22 23 26 27 28 32 36 39 40 41 43 47 51 56 60 61 61 60 58 56
30 29 28 27 24 21 17 14 13 13 13 14 14 14 14 14 14 15 15 14 14 15 15 15 16 17 18 18 16 14 11 10 9 9 10 11 12 13 13 14 15 17 20 23 25 27 29 33 40 47 51 53 54 55 56 58 62 65 67 68 66 65 63
29 27 26 23 19 16 15 14 15 16 17 18 18 17 17 16 16 15 14 14 14 14 15 15 16 16 15 13 11 9 9 10 11 13 15 16 16 17 16 16 17 19 22 25 29 33 38 45 53 60 67 71 72 71 69 68 69 70 72 73 72 71 68
27 23 20 18 17 17 17 18 19 20 21 21 20 19 18 17 16 15 14 14 14 14 14 15 14 12 10 9 10 12 14 15 17 18 19 19 20 20 20 20 21 23 25 28 34 41 51 62 71 76 81 86 88 87 84 81 79 77 76 76 76 76 73
21 18 16 16 17 20 22 23 25 25 25 24 21 20 19 18 17 16 14 14 14 14 13 12 10 9 10 13 15 17 18 19 20 20 20 21 22 22 23 25 26 29 32 34 40 49 62 77 89 92 93 97 99 99 96 93 88 84 80 79 78 78 78
16 15 15 15 17 21 24 26 27 28 27 25 23 22 21 18 17 16 16 16 15 12 10 9 10 13 15 17 18 19 20 20 20 21 21 22 24 25 27 30 33 36 40 43 50 60 71 86 98 102 103 103 104 104 102 98 94 89 85 83 81 80 80
16 16 17 17 19 22 24 26 28 29 28 26 23 22 20 19 19 18 17 14 11 10 11 13 16 17 18 18 19 19 20 21 21 22 23 24 26 29 32 37 41 45 50 56 64 73 83 95 103 106 106 106 105 106 107 103 97 92 88 85 83 81 81
18 19 20 20 22 24 25 26 27 27 26 24 22 23 23 22 20 16 11 10 10 14 17 18 18 19 19 19 20 20 21 21 21 22 24 26 29 34 39 44 49 54 61 69 77 84 94 104 107 105 106 107 106 107 107 103 97 92 89 85 80 78 80
22 24 24 24 26 26 24 24 25 25 24 23 23 25 23 19 14 10 10 15 18 20 20 19 18 19 20 21 22 22 22 23 23 24 26 30 37 43 48 53 59 66 76 84 90 96 102 106 105 102 102 103 101 99 98 95 91 89 86 83 77 74 75
25 28 28 26 26 24 22 23 24 25 25 24 22 20 15 11 11 13 17 21 21 21 20 19 20 21 22 23 23 23 24 25 26 28 32 39 48 55 60 66 73 81 90 95 96 98 99 97 94 91 89 87 85 82 81 80 79 77 77 76 73 71 70
29 29 27 25 25 24 25 26 25 25 23 20 15 12 10 12 16 19 20 21 20 20 20 19 20 22 24 26 25 24 26 28 31 37 43 52 61 67 73 80 86 91 94 94 91 88 84 79 75 71 67 65 63 61 60 59 59 59 58 59 60 60 60
30 30 29 29 29 29 29 28 25 21 16 12 11 12 15 18 19 19 20 20 19 17 16 16 18 21 26 29 28 27 29 33 39 48 57 64 70 75 80 85 87 86 83 79 74 69 64 59 54 50 46 45 42 40 39 38 37 37 37 37 38 40 41
33 34 35 36 35 34 32 27 20 14 11 12 15 18 20 19 19 18 18 17 15 14 14 15 18 23 27 29 29 32 38 43 48 55 62 68 73 76 77 76 73 69 65 60 56 51 46 42 38 35 32 31 29 28 28 27 26 26 26 25 25 25 25
39 40 40 40 39 34 27 19 13 12 14 18 20 20 19 18 16 16 16 15 14 14 15 18 21 24 27 29 32 39 46 51 55 58 61 64 67 67 65 61 56 52 49 44 40 37 34 32 30 28 27 27 26 26 26 25 25 24 24 24 24 22 22
41 43 42 38 31 24 18 16 16 18 21 21 20 19 17 14 14 15 17 18 17 16 17 20 22 25 29 33 39 46 51 56 59 59 56 55 54 52 49 46 41 37 35 32 30 29 29 29 28 28 27 27 27 26 26 26 25 25 24 24 24 23 22
38 38 32 24 20 19 20 22 22 23 22 20 18 16 14 13 15 19 21 22 21 19 20 23 27 32 37 42 47 50 51 52 52 49 45 42 39 37 35 33 30 28 28 27 27 28 27 27 28 28 28 28 27 27 27 27 26 25 25 25 25 24 24
28 23 19 18 22 26 26 25 23 22 20 18 17 15 14 15 18 22 25 27 27 26 27 30 34 38 41 44 44 43 41 38 36 34 32 30 29 28 27 27 27 27 27 27 27 28 27 27 27 27 27 28 28 29 28 28 28 27 26 26 26 26 25
Wind_Speed
59 59 59 60 61 61 61 62 63 63 64 66 67 68 68 70 71 72 74 75 76 77 79 80 81 81 82 83 84 84 84 82 81 80 79 79 79 79 80 80 80 80 79 77 78 79 78 77 77 76 74 73 72 72 73 74 74 74 74 73 71 70 70
61 61 61 62 62 63 63 64 65 65 66 67 68 69 70 72 73 74 76 77 78 79 80 81 82 83 84 84 85 84 83 81 81 80 80 80 80 80 81 82 82 82 82 80 79 79 79 78 77 76 75 74 73 72 73 74 74 74 73 71 70 68 68
65 64 64 64 65 65 66 66 67 67 68 69 70 71 72 74 75 76 78 79 80 81 82 83 84 84 85 86 85 84 83 82 82 82 82 82 82 82 82 83 83 84 84 82 80 80 79 78 77 76 75 75 74 73 73 73 73 72 71 69 68 67 67
68 67 67 67 67 68 68 68 69 69 70 71 72 73 75 76 77 78 80 81 82 83 84 84 85 86 86 86 85 84 83 84 84 84 84 84 84 84 84 84 84 85 85 84 82 80 79 77 76 75 74 74 74 73 73 72 72 71 69 67 66 65 65
72 71 71 71 71 71 71 70 71 71 72 73 74 75 77 78 79 80 81 83 83 84 85 86 87 87 87 85 84 84 84 85 86 86 86 86 86 86 86 85 85 85 85 85 83 81 79 77 75 74 73 73 73 73 72 72 70 69 67 65 65 63 63
76 75 74 74 73 73 73 72 73 73 74 75 76 77 78 79 81 82 83 84 85 86 87 88 88 88 87 86 85 86 86 86 87 87 87 87 87 87 87 86 86 86 85 84 83 81 79 76 75 73 72 72 72 72 71 70 69 67 66 64 62 62 61
79 78 77 76 76 75 74 74 75 76 76 78 79 80 80 82 83 84 85 86 87 88 89 89 89 88 87 87 88 88 88 89 89 88 88 88 88 88 88 87 86 85 84 83 82 80 78 76 74 72 71 71 71 71 69 68 66 65 64 63 61 60 60
81 80 79 78 77 76 76 77 77 78 79 80 81 82 83 84 85 86 87 88 89 90 90 90 89 89 89 90 90 91 91 91 90 90 89 89 89 88 87 86 85 84 83 82 81 79 77 75 73 71 70 70 70 69 68 67 65 63 62 62 60 59 58
83 82 80 79 78 78 78 79 79 80 81 82 83 84 85 86 87 88 89 90 91 91 91 90 91 91 92 92 93 93 93 92 92 91 90 90 89 88 87 85 84 83 82 81 79 77 75 73 71 70 70 69 68 67 66 65 64 62 61 60 59 58 57
84 82 81 80 80 80 80 81 82 82 83 84 85 86 87 88 89 90 91 91 91 91 91 91 92 93 94 95 95 96 95 94 93 93 92 91 89 87 86 84 83 81 80 79 77 75 74 72 70 69 69 68 67 66 65 63 63 62 60 59 59 58 56
84 83 82 81 81 81 82 83 84 84 85 86 87 88 89 90 91 92 93 92 91 91 92 92 94 95 96 96 96 96 96 95 94 94 93 91 89 87 85 84 82 80 79 77 75 73 72 71 69 68 68 67 66 65 63 62 61 61 60 59 58 57 56
84 83 82 82 82 82 83 84 85 86 87 88 89 91 92 93 94 94 93 93 92 93 94 95 95 96 96 96 96 95 95 95 95 94 93 91 89 87 85 83 81 79 77 75 74 72 71 70 69 68 67 66 65 64 62 61 60 59 59 59 58 57 57
84 83 83 83 83 84 85 86 87 88 89 91 92 94 95 95 96 95 94 94 95 96 97 97 97 97 96 95 94 94 94 94 94 94 92 90 88 86 84 82 81 79 77 74 73 71 69 69 69 68 66 66 65 63 61 60 59 59 59 59 59 57 57
84 83 84 84 85 86 87 88 89 91 92 94 95 96 97 97 96 96 96 97 98 99 99 99 99 98 97 96 95 94 94 94 93 92 91 89 87 84 83 81 80 78 77 74 72 70 69 69 69 67 66 66 65 64 62 60 58 58 59 59 59 58 56
84 84 85 86 86 87 89 90 92 93 95 96 97 98 98 97 97 97 98 99 100 101 101 101 100 100 99 98 97 95 94 93 92 91 89 87 85 83 82 80 79 78 76 75 73 71 69 69 68 68 67 66 66 64 62 60 59 59 59 59 59 58 57
84 85 86 87 88 89 91 93 94 96 97 98 98 98 98 98 98 99 100 100 101 101 101 101 101 101 100 99 98 96 95 93 91 89 87 86 84 82 81 80 79 78 77 76 75 73 71 70 69 68 67 67 66 65 63 61 60 59 58 58 58 58 58
85 86 86 88 90 91 93 95 96 98 99 99 99 99 99 100 100 100 101 101 102 102 102 101 101 101 100 99 98 97 95 93 90 88 87 85 84 82 81 81 81 81 79 78 77 75 74 72 71 70 68 67 67 65 63 61 60 59 58 58 58 58 58
86 87 88 90 92 94 95 97 98 100 100 100 100 100 101 101 101 101 102 102 102 102 101 101 100 100 99 98 97 95 94 92 90 88 87 87 86 85 84 83 84 84 82 81 79 77 76 75 73 72 70 68 67 66 64 62 61 60 59 58 57 58 58
87 89 91 93 94 96 98 99 100 100 100 100 101 101 102 102 102 102 102 102 101 101 100 100 99 99 98 96 95 93 92 91 90 90 89 89 88 87 85 85 84 84 83 81 79 78 76 75 74 72 70 69 67 66 65 63 62 60 59 58 58 58 58
89 91 93 94 96 98 99 100 100 101 101 102 102 102 103 103 103 102 102 102 101 101 99 98 98 97 96 95 93 93 92 92 91 90 88 87 86 84 82 80 79 79 78 77 76 74 74 73 72 71 70 68 67 65 65 64 62 61 60 59 58 59 59
91 93 94 96 98 99 100 100 101 101 102 102 102 103 103 103 103 103 103 102 101 100 99 97 96 95 95 94 94 93 91 89 87 85 82 80 79 76 74 73 72 71 71 70 70 70 69 69 69 68 68 67 65 65 64 64 63 62 61 60 59 59 59
93 95 96 97 98 99 100 101 101 101 102 102 102 103 103 103 103 104 103 102 100 99 98 96 95 95 94 93 91 88 85 82 80 78 76 74 72 71 69 67 66 65 64 64 64 64 64 65 65 65 65 64 64 64 64 63 63 63 62 61 60 60 59
95 96 96 97 98 99 100 100 100 101 101 102 103 103 103 103 103 103 102 101 100 98 97 96 95 93 90 87 83 80 78 76 75 74 73 71 69 68 66 65 63 61 60 60 59 59 60 60 61 62 62 62 62 62 62 62 63 63 63 62 61 60 60
96 97 97 97 98 98 99 99 99 100 101 102 102 102 102 102 102 101 101 100 99 97 96 94 91 87 82 79 77 75 75 74 73 72 70 69 67 65 64 62 60 58 57 56 55 55 55 56 58 59 59 59 60 60 60 61 62 62 62 62 62 61 61
97 97 98 98 98 98 98 99 99 99 100 101 101 100 100 100 100 99 99 98 97 95 93 89 84 80 77 76 75 74 73 72 71 69 67 66 64 62 60 58 56 55 53 52 52 52 52 52 54 55 56 56 57 57 58 59 60 60 61 62 62 62 61
98 98 98 99 99 99 98 98 98 98 98 99 99 99 99 98 97 97 97 96 94 90 86 82 79 77 76 75 74 73 71 69 68 66 64 62 60 58 56 54 53 51 50 49 48 48 48 49 50 51 52 53 53 54 55 56 57 58 59 60 61 61 61
98 99 99 99 99 99 98 98 98 97 97 97 97 97 96 96 96 96 94 92 88 84 81 79 78 77 75 74 72 70 68 66 64 61 59 57 56 54 52 50 49 47 46 46 45 45 45 46 47 48 49 50 50 51 52 53 54 54 56 58 59 59 59
99 99 100 99 99 99 98 97 97 97 96 95 94 94 94 94 94 91 88 86 84 82 80 79 77 75 74 72 69 67 65 62 59 57 54 52 51 49 47 46 45 44 43 43 43 42 43 44 45 46 47 48 48 49 50 51 51 52 53 55 56 57 58
99 99 100 100 99 99 98 96 95 95 94 94 94 94 93 90 87 84 83 83 82 81 79 77 75 73 71 69 66 63 60 58 55 52 49 47 46 45 43 42 42 41 41 41 40 40 41 42 44 45 46 46 47 48 49 49 49 50 51 52 53 54 56
99 99 99 99 98 98 96 94 93 93 94 94 93 90 87 83 81 81 82 82 81 79 77 75 72 69 66 64 62 59 56 52 49 47 44 43 42 41 40 40 39 39 39 39 39 40 41 42 43 44 45 45 45 46 47 47 47 48 48 49 51 52 54
98 98 98 97 96 94 93 93 93 93 93 91 87 83 81 80 80 81 81 80 78 75 73 70 67 63 60 58 56 54 50 47 44 42 40 39 39 38 38 38 38 38 38 38 39 39 39 40 40 41 41 42 42 42 43 43 43 44 44 45 47 48 50
95 94 94 93 92 92 92 93 92 91 87 84 81 79 79 80 80 79 77 74 72 69 66 63 60 56 53 51 49 47 45 42 40 38 37 36 36 37 37 37 37 37 37 36 36 36 36 36 37 37 38 38 38 38 39 39 39 39 39 40 41 43 45
91 90 90 90 91 92 92 91 88 84 81 78 78 78 78 77 75 72 68 66 63 61 58 55 52 49 46 44 43 41 38 36 35 34 34 34 34 35 36 35 34 33 33 33 33 33 33 34 35 35 35 36 36 36 36 36 36 36 36 37 37 39 41
87 87 88 89 89 89 88 85 82 79 77 77 76 76 74 70 66 61 58 57 55 53 50 47 44 41 39 37 36 33 32 32 32 33 32 31 31 31 31 31 31 30 30 30 30 30 31 31 32 32 33 33 34 34 34 35 35 35 34 34 35 36 37
84 86 87 86 85 83 81 79 77 76 76 74 71 68 64 60 55 51 49 48 46 44 40 37 35 32 31 30 29 28 28 28 29 30 29 29 28 28 28 29 29 29 28 28 28 28 28 28 29 30 30 31 31 32 32 33 33 33 32 32 32 33 34
83 83 81 79 78 77 77 76 76 74 71 66 61 57 54 50 45 42 40 38 37 36 33 30 27 26 25 25 25 26 27 27 27 27 27 27 27 27 26 27 26 26 25 25 25 25 26 26 26 27 28 28 29 30 30 31 31 31 31 30 30 31 32
Wind_Direction
287 287 286 286 286 285 285 286 286 286 286 287 287 288 290 291 292 294 294 295 296 296 297 297 298 298 299 300 301 301 302 301 301 301 300 300 300 299 299 299 298 298 298 297 296 295 294 292 291 290 289 287 285 284 283 282 280 279 278 276 274 272 269
289 288 288 288 287 287 287 287 287 287 288 288 289 290 292 293 294 294 295 295 296 296 296 297 298 299 300 301 301 301 301 301 301 300 300 300 300 299 299 298 298 298 298 297 296 295 294 293 291 290 289 287 285 283 281 280 279 278 277 275 273 271 268
291 290 290 289 289 288 288 288 288 289 289 290 291 292 293 294 294 295 295 295 296 296 297 298 299 300 301 301 301 301 301 301 301 300 300 300 299 299 299 298 298 298 297 297 296 294 293 292 291 290 289 287 285 283 280 279 278 277 276 274 272 270 267
293 292 292 291 290 289 289 289 289 290 290 291 292 292 293 293 294 294 295 295 296 297 298 299 300 301 301 301 301 301 301 301 301 300 300 300 299 299 299 298 298 297 297 296 296 294 293 292 291 289 288 286 284 282 280 278 277 276 274 273 272 269 267
294 293 293 291 290 290 290 290 290 290 291 291 292 292 292 293 294 294 295 296 297 298 299 300 300 301 301 301 301 301 301 300 300 300 300 300 299 299 299 298 298 297 296 296 295 294 293 291 290 288 286 284 282 281 280 278 276 275 273 272 271 269 266
294 293 293 291 290 290 290 290 290 290 291 291 291 292 293 294 294 295 296 297 298 299 300 300 301 301 301 300 300 300 300 300 300 300 300 300 300 299 299 298 297 296 296 295 295 294 292 291 289 287 284 282 281 279 278 277 276 274 272 271 270 269 266
293 293 292 291 290 289 289 290 290 290 290 291 292 293 293 294 295 296 297 298 299 300 300 300 300 300 300 300 300 300 300 300 300 300 300 300 299 299 298 297 296 296 295 294 294 293 291 290 287 285 283 281 280 279 277 276 275 273 272 270 268 267 265
293 292 291 289 289 289 289 289 289 290 291 291 292 293 294 295 296 297 298 299 299 300 300 300 300 300 300 300 300 300 300 300 300 300 300 300 299 298 297 296 295 295 294 293 292 291 290 288 286 284 282 280 278 278 277 275 273 271 270 269 268 266 264
291 290 289 288 288 288 289 289 290 290 291 292 293 294 295 296 297 298 298 299 300 300 300 300 300 300 300 300 300 300 300 300 300 300 300 299 298 297 296 295 294 294 292 291 291 289 288 286 284 282 280 279 278 277 275 274 272 270 268 267 267 265 263
289 288 288 288 288 288 289 289 290 291 292 293 294 295 296 296 297 298 298 299 299 300 300 300 300 300 300 300 300 300 300 300 300 300 299 299 297 296 295 294 293 292 291 290 289 288 286 284 283 281 279 278 277 276 275 273 271 269 268 266 265 264 262
288 287 287 287 288 289 289 290 291 292 293 294 295 295 296 296 297 298 298 298 299 299 299 299 300 300 300 300 301 301 301 301 300 300 299 298 297 296 294 293 292 290 289 288 287 286 284 283 281 280 279 278 276 275 274 272 270 268 266 265 263 262 260
287 286 287 287 288 289 290 290 291 293 293 294 295 295 296 296 297 298 298 298 298 298 299 299 300 300 300 301 301 301 301 300 300 299 298 297 296 295 294 292 291 289 288 286 285 284 283 282 280 279 278 277 276 275 274 272 269 267 265 263 262 260 259
286 287 287 288 289 290 290 292 293 294 294 295 295 296 296 297 297 298 298 298 298 299 299 300 300 300 301 301 301 301 300 299 299 298 297 296 295 294 293 291 290 288 287 285 283 282 281 280 279 278 277 276 275 274 273 271 269 266 264 262 261 259 257
286 287 288 289 289 291 292 293 294 294 295 295 296 296 297 298 298 298 298 299 299 300 300 300 301 301 301 301 301 300 299 298 297 297 296 295 294 293 291 290 289 287 286 284 282 281 279 278 278 277 276 276 275 273 272 270 268 266 263 261 260 259 257
287 288 289 289 290 292 293 293 294 294 295 296 297 297 297 298 298 298 299 299 300 300 301 301 301 301 301 300 300 298 297 297 296 296 295 294 293 292 290 289 287 286 284 283 282 280 279 277 277 276 275 274 274 273 271 270 268 265 263 261 260 259 256
287 288 289 291 292 293 293 294 294 295 296 296 297 297 297 297 298 299 299 300 300 301 301 301 301 301 300 300 299 298 297 296 295 295 294 293 292 290 289 288 286 285 284 282 281 280 279 277 276 275 274 273 272 272 271 269 268 265 263 261 260 258 257
288 290 291 292 293 293 294 294 295 296 296 297 297 297 297 298 299 300 300 301 301 301 301 301 301 300 300 299 298 297 297 296 295 294 293 292 291 289 288 286 285 284 283 281 280 279 278 277 275 274 273 272 271 270 269 268 267 265 263 261 259 258 256
290 291 292 293 293 294 294 295 296 296 297 297 297 297 298 298 299 300 300 301 301 301 301 300 300 299 299 298 297 297 296 295 294 294 292 291 289 288 286 285 283 282 281 280 279 278 277 276 274 273 272 271 270 269 268 267 265 264 262 260 259 257 256
291 292 292 293 294 294 295 295 296 296 297 297 297 297 298 299 299 300 300 301 301 300 300 299 299 298 298 297 297 296 295 295 294 293 292 290 288 287 285 283 282 281 280 279 278 277 276 274 273 272 271 270 268 267 266 266 264 263 261 259 258 256 255
292 292 293 294 294 295 295 295 295 296 296 297 297 298 299 299 300 300 300 300 300 300 299 299 298 298 297 297 296 296 295 295 293 292 290 289 287 286 284 283 282 281 279 278 277 275 274 273 272 271 270 268 267 266 265 264 263 262 260 258 256 255 254
292 293 293 294 294 295 295 295 295 296 297 297 298 299 300 300 301 301 300 300 300 299 299 299 298 297 297 297 297 296 295 294 293 291 289 288 287 286 285 284 282 280 279 277 276 274 273 272 271 270 269 267 266 265 263 262 261 260 259 257 255 254 253
292 293 293 294 294 294 295 295 296 297 298 299 299 300 300 301 301 300 300 300 299 299 299 298 298 298 298 297 297 296 295 293 291 290 289 288 288 287 286 284 282 280 278 276 275 274 272 271 270 269 268 266 265 263 262 261 261 260 258 257 255 254 252
292 293 293 293 294 295 296 297 298 299 299 300 300 300 301 301 300 300 300 299 299 299 299 299 298 298 298 297 296 295 293 292 291 290 289 289 288 287 286 284 282 280 278 276 275 273 272 271 270 268 267 266 264 263 262 261 260 259 258 257 256 254 253
292 292 293 294 295 296 297 298 299 299 300 300 300 300 300 300 300 300 300 300 300 300 299 299 299 298 298 297 295 294 293 292 291 290 290 289 288 287 285 284 282 280 279 277 275 273 272 271 270 268 267 266 265 264 262 261 260 259 258 257 256 255 254
293 293 294 295 296 297 298 299 299 299 300 300 300 300 300 300 300 300 300 300 300 300 300 299 299 298 297 296 294 293 292 292 291 290 289 288 287 286 284 283 281 280 278 276 275 273 272 270 269 269 268 267 266 264 263 261 260 259 258 257 257 256 255
294 295 296 297 298 298 298 299 299 300 300 300 300 300 300 300 300 300 300 301 301 300 300 299 299 298 297 296 294 293 292 291 290 289 288 287 286 284 283 282 281 279 278 276 275 273 272 271 270 269 268 267 266 265 264 263 261 260 259 258 257 256 256
296 297 297 298 298 299 299 300 300 300 300 300 300 300 300 300 301 301 302 301 300 300 299 299 299 298 297 295 293 292 291 290 289 288 287 286 285 283 283 282 280 279 278 277 275 274 273 272 271 270 269 268 267 266 264 263 261 260 259 258 257 256 255
297 298 298 299 299 299 300 300 300 300 300 300 300 300 301 302 302 302 301 300 300 300 300 300 299 297 295 293 292 291 290 289 288 287 286 285 284 283 283 282 281 280 278 277 276 275 274 273 272 271 270 269 267 266 265 264 263 261 260 259 258 256 255
298 299 299 300 300 300 300 300 300 300 300 300 301 301 302 302 302 301 301 300 300 300 300 299 297 295 293 291 290 290 289 288 287 286 285 285 284 284 283 282 281 280 279 278 277 276 275 273 272 271 270 269 269 268 266 265 264 262 261 260 258 257 256
299 299 300 300 300 300 301 301 301 300 301 301 302 302 302 302 302 301 301 300 299 299 298 296 294 292 291 290 290 289 288 286 286 286 286 285 285 284 283 283 281 280 279 278 278 276 275 274 273 272 271 270 269 268 267 266 265 263 261 260 258 257 256
299 300 300 301 301 301 301 301 301 301 301 302 303 303 303 303 302 301 300 299 298 297 296 294 291 290 289 289 289 288 287 286 286 286 286 285 285 285 283 282 281 280 280 279 278 276 275 274 273 272 271 270 269 268 268 266 265 263 262 260 258 257 256
300 301 301 301 301 301 301 301 301 302 302 303 303 303 303 302 302 301 299 298 297 296 294 292 290 290 289 289 288 287 286 287 287 287 286 286 285 285 283 282 281 281 280 279 278 277 276 275 274 273 272 271 270 269 268 267 266 264 263 262 260 258 257
301 301 301 301 301 301 301 301 302 303 303 303 303 303 303 302 301 300 299 297 296 296 294 293 292 291 290 288 287 287 288 289 289 288 287 286 285 284 284 283 282 281 280 279 278 277 277 276 274 273 272 272 271 270 269 269 268 266 265 263 262 261 260
300 300 301 301 301 301 301 301 302 303 303 304 304 303 302 302 301 300 299 298 298 297 296 295 294 293 291 289 289 290 291 290 290 289 289 287 286 284 283 283 283 282 281 279 278 277 276 275 274 273 273 272 271 271 270 269 268 267 266 264 263 262 262
300 300 300 301 300 300 300 301 302 303 304 304 304 303 302 302 302 301 300 300 301 301 300 298 297 295 294 293 294 294 293 291 290 289 289 288 287 285 284 284 284 283 282 281 280 279 278 277 276 275 274 273 272 271 270 269 268 268 266 265 264 263 263
300 300 300 300 300 300 300 301 303 303 304 304 303 302 302 303 304 304 304 303 304 304 305 304 302 300 298 297 297 295 294 292 291 290 289 288 288 287 287 286 285 284 284 283 282 282 281 280 279 277 276 275 274 273 271 270 269 268 267 266 265 264 264